风云二号D星 (FENGYUN 2D)

导读 | 星芒AI

FENGYUN 2D 是中国风云二号气象卫星系列中的一颗静止轨道气象卫星,于2006年12月发射。它主要用于观测地球大气、云层和地表状况,提供实时气象数据,支持天气预报、气候监测和灾害预警。该卫星搭载多通道扫描辐射计,具备高分辨率和高精度的观测能力,为中国及周边地区的气象服务提供了重要保障。

基本信息
目录编号:
29640
目录名称:
FENGYUN 2D
国际标识:
2006-053A
轨道中心:
EARTH
卫星名称:
风云二号D星
卫星全名:
风云二号D星 (FENGYUN 2D)
卫星状态:
在轨 (已飞行6900 天)
发射日期:
2006-12-08 UTC
国别 :
中国 (CN)
星等 :
--
轨道信息
数据来源 国际轨道数据 AOE轨道数据
星历时间 2025-10-28T07:24:34+0800
1天前
查看轨道信息
2025-10-22T21:00:00+0800
6天前
查看轨道信息
半长轴 42757.371km 42758.184km
偏心率 0.0008169 0.0008055
轨道倾角 10.533° 10.523°
近地点辐角 36.496° 35.307°
升交点赤经 42.796° 42.836°
平近点角 322.438° 202.753°
近地点 36344.307km 36345.607km
远地点 36414.165km 36414.491km
周期 1466.480分钟 1466.522分钟
每日圈数 0.981943 0.981915
详细信息
平衡模式:
三轴稳定
覆盖范围:
亚洲
运营商:
夏威夷科学技术博物馆
运营商所在国:
美国
制造商(研发单位):
上海航天技术研究院
制造商所在国:
中国
使用方式:
暂无
卫星简介
风云气象卫星系列(FENGYUN Meteorological Satellite)是中国于1977年开始研制的气象卫星系列,目前发射了风云一号、风云二号、风云三号、风云四号等卫星系列。其中,风云二号系列、风云四号系列为风云静止卫星,风云一号系列、风云三号系列为风云极轨卫星。该卫星已退役。
2D轨道图
3D轨道图
轨道高度分析图
轨道倾角分析图
轨道综合分析图
查看轨道综合分析图